Regional Weather Roundup
Issued by NWS

Home | Current Version | Previous Version | Graphics & Text | Print | Product List | Glossary Off
Versions: 1 2 3 4 5 6 7 8 9 10 11 12 13 14 15 16 17 18 19 20 21 22 23 24 25 26 27 28 29 30 31 32 33 34 35 36 37 38 39 40 41 42 43 44 45 46 47 48 49 50

000
ASUS43 KMKX 281011
RWRWI

WISCONSIN REGIONAL WEATHER ROUNDUP
NATIONAL WEATHER SERVICE MILWAUKEE/SULLIVAN WI
400 AM CST TUE FEB 28 2017

NOTE: "FAIR" INDICATES FEW OR NO CLOUDS BELOW 12,000 FEET WITH NO
SIGNIFICANT WEATHER AND/OR OBSTRUCTIONS TO VISIBILITY.

WIZ001-002-006>008-014>016-023>028-281100-
NORTHWEST WISCONSIN

CITY           SKY/WX    TMP DP  RH WIND       PRES   REMARKS
SUPERIOR ARPT  LGT SNOW  31  29  94 NE6       29.84S WCI  25
ASHLAND        CLOUDY    27  25  92 N3        29.81F
HAYWARD        CLOUDY    38  28  67 S5        29.79S WCI  34
SIREN          CLOUDY    34  27  76 CALM      29.78S
CUMBERLAND     CLOUDY    34  28  80 E3        29.77F
RICE LAKE      CLOUDY    36  30  79 E5        29.79S WCI  32
CHETEK         CLOUDY    35  30  83 CALM      29.78F
LADYSMITH      CLOUDY    34  30  85 SE3       29.81S
EAU CLAIRE     CLOUDY    36  30  79 NE3       29.77F
MENOMONIE      CLOUDY    34  31  87 E3        29.77F
NEW RICHMOND   CLOUDY    35  29  79 CALM      29.76F
OSCEOLA        CLOUDY    35  29  78 CALM      29.78F
$$

WIZ003>005-009-010-017-018-281100-
NORTH CENTRAL WISCONSIN

CITY           SKY/WX    TMP DP  RH WIND       PRES   REMARKS
MANITOWISH WTR CLOUDY    31  29  93 SE5       29.80F WCI  26
ARBOR VITAE    CLOUDY    32  28  86 SE5         N/A  WCI  27
WOODRUFF       CLOUDY    32  28  86 SE5         N/A  WCI  27
RHINELANDER    CLOUDY    31  28  89 CALM      29.82F
EAGLE RIVER    CLOUDY    29  26  88 CALM      29.82F
LAND O LAKES   CLOUDY    34  29  82 SE3       29.83F
PHILLIPS       CLOUDY    28  27  95 E3        29.79F
TOMAHAWK       CLOUDY    29  27  90 CALM      29.82F
MEDFORD        CLOUDY    35  30  83 SE3       29.80S
MERRILL        NOT AVBL
$$

WIZ029-030-035-036-043>047-281100-
CENTRAL WISCONSIN

CITY           SKY/WX    TMP DP  RH WIND       PRES   REMARKS
WAUSAU         CLOUDY    33  30  88 E5        29.81F WCI  29
MOSINEE        LGT RAIN  34  32  93 SE6       29.83F WCI  29
MARSHFIELD     CLOUDY    37  32  82 SE6       29.79F WCI  32
STEVENS POINT  CLOUDY    34  32  91 SE6       29.83F WCI  29
WAUPACA        LGT RAIN  38  35  88 SE3       29.85F
WAUTOMA        LGT RAIN  38  37  97 E5        29.84F FOG     WCI  34
WISC RAPIDS    CLOUDY    38  36  92 SE7       29.83F WCI  33
CAMP DOUGLAS   CLOUDY    36  34  93 CALM      29.81F FOG
$$

WIZ011>013-019>022-031-037>040-048>050-281100-
NORTHEAST WISCONSIN

CITY           SKY/WX    TMP DP  RH WIND       PRES   REMARKS
ANTIGO         CLOUDY    32  30  92 CALM      29.84S
SHAWANO        CLOUDY    39  33  80 CALM      29.87F
OCONTO         CLOUDY    36  33  89 SE3       29.88F
STURGEON BAY   CLOUDY    39  36  89 S15       29.90F WCI  31
GREEN BAY      LGT RAIN  39  38  96 SE13      29.87F WCI  31
MANITOWOC      LGT RAIN  39  36  89 SE12      29.90F WCI  32
APPLETON       RAIN      36  36 100 SE7       29.85F WCI  30
CLINTONVILLE   CLOUDY    36  32  87 CALM      29.86F
OSHKOSH        RAIN      37  35  92 E5        29.86F FOG     WCI  33
$$

WIZ032>034-041-042-053>061-281100-
SOUTHWEST WISCONSIN

CITY           SKY/WX    TMP DP  RH WIND       PRES   REMARKS
LA CROSSE      CLOUDY    40  38  93 SE6       29.77S
SPARTA         CLOUDY    41  39  91 SE9       29.81S
VIROQUA        CLOUDY    38  37  97 E9        29.78F WCI  32
BOSCOBEL       CLOUDY    41  39  93 E3        29.79F FOG
PRAIRIE DU CHI CLOUDY    38  37  96 CALM      29.78F FOG
PLATTEVILLE    CLOUDY    40  40 100 E9        29.78F WCI  33
$$

WIZ056-057-062-063-064-067-068-281100-
SOUTH CENTRAL WISCONSIN

CITY           SKY/WX    TMP DP  RH WIND       PRES   REMARKS
REEDSBURG      CLOUDY    37  37 100 CALM      29.80F FOG
BARABOO/DELLS  CLOUDY    37  36  95 E3        29.80F FOG
LONE ROCK      CLOUDY    42  39  89 E9        29.80F
MINERAL POINT  CLOUDY    45  45 100 SE8       29.79F
MADISON        CLOUDY    42  40  92 MISG      29.81F
MIDDLETON      CLOUDY    43  42  95 CALM      29.83S
WATERTOWN      LGT RAIN  41  41 100 E9        29.83F
MONROE         CLOUDY    43  43 100 SE9       29.79F
JANESVILLE     CLOUDY    45  45 100 SE8       29.83F
$$

WIZ051-052-058>065-066-070>072-281100-
SOUTHEAST WISCONSIN

CITY           SKY/WX    TMP DP  RH WIND       PRES   REMARKS
MILWAUKEE      CLOUDY    42  39  89 SE13      29.88F FOG
WAUKESHA       CLOUDY    39  37  93 SE9       29.87F FOG     WCI  33
MILWAUKEE/TIMM CLOUDY    41  37  87 SE13      29.88F FOG
RACINE         LGT RAIN  42  40  92 SE13      29.90F
KENOSHA        CLOUDY    42  40  92 SE13      29.86F FOG
FOND DU LAC    HVY RAIN  39  34  82 SE9       29.85F WCI  33
SHEBOYGAN      LGT RAIN  39  37  92 SE6       29.89F FOG     WCI  35
WEST BEND      LGT RAIN  37  37 100 SE3       29.88F
JUNEAU         RAIN      40  38  95 E12       29.84F WCI  33
$$

LSZ147-162-281100-
LAKE SUPERIOR

STATION/POSITION TIME  TEMP    WIND        PRES    WAVE
                       AIR SEA DIR/SP/G            HT/PER
                 (UTC) (F)     (DEG/KT/KT) (MB)    (FT/S)
DEVILS ISLAND    0900   34      70/  9/ 10 1010.6F
PORT WING        0940   26      60/  3/  6 1010.2S
SAXON HARBOR     0940   28      CALM  /  2 1009.1F
$$

LMZ867-665-643>646-281100-
LAKE MICHIGAN

STATION/POSITION TIME  TEMP    WIND        PRES    WAVE
                       AIR SEA DIR/SP/G            HT/PER
                 (UTC) (F)     (DEG/KT/KT) (MB)    (FT/S)
CHAMBERS ISLAND  0940   39     130/  7/ 14 1012.5F
NORTHPORT PIER   0940   38     150/ 11/ 15 1013.2F
SISTER BAY       0935   38     160/ 11/ 16   N/A
ALGOMA LAKESHORE 0741             CALM       N/A
KEWAUNEE LAKESHO 0948   38     180/ 11/ 12 1012.8F
SHEBOYGAN LAKESH 1000   40     140/ 17/ 19 1012.5F
PORT WASHINGTON  0940   39     180/  6/  7 1013.5F
MILWAUKEE LAKESH 0950   39     130/  9/ 10   N/A
KENOSHA   LAKESH 1000   40     130/  8/ 12 1012.2
$$

TC  - TEMPERATURE IN CELSIUS
VSB - VISIBILITY IN STATUTE MILES
WCI - WIND CHILL INDEX
HX  - HEAT INDEX




USA.gov is the U.S. government's official web portal to all federal, state and local government web resources and services.